Regional Weather Roundup
Issued by NWS Jackson, KY

Home | Current Version | Previous Version | Text Only | Print | Product List | Glossary On
Versions: 1 2 3 4 5 6 7 8 9 10 11 12 13 14 15 16 17 18 19 20 21 22 23 24 25 26 27 28
000
ASUS43 KJKL 222110
RWRJKL

EAST KENTUCKY HOURLY WEATHER ROUNDUP
NATIONAL WEATHER SERVICE JACKSON KY
500 PM EDT FRI SEP 22 2017

NOTE: "FAIR" INDICATES FEW OR NO CLOUDS BELOW 12,000 FEET WITH
NO SIGNIFICANT WEATHER AND/OR OBSTRUCTIONS TO VISIBILITY.

* THESE REPORTS ARE NOT UNDER NWS QUALITY CONTROL AND MAY NOT
  REPORT WEATHER SUCH AS PRECIPITATION AND FOG.

KYZ079-080-083-085-087-088-110-112-115-119-120-222200
...EASTERN KENTUCKY...

CITY           SKY/WX    TMP DP  RH WIND       PRES   REMARKS
JACKSON        MOSUNNY   82  64  54 VRB3      30.08F
LONDON         MOSUNNY   84  64  50 NE5       30.06F
SOMERSET*      MOSUNNY   82  63  51 E5        30.05F
MONTICELLO*    SUNNY     85  66  53 CALM      30.06F
WILLIAMSBURG*  PTCLDY    82  66  57 NE6       30.05F
MIDDLESBORO*   MOSUNNY   87  64  46 NW6       30.05F
HARLAN APT*    CLEAR     82  61  47 CALM      30.07F
PIKE CO APT*     N/A     80  63  57 CALM      30.09F
BIG SANDY APT* PTCLDY    83  66  57 NE3       30.08F
MOREHEAD APT*  MOCLDY    82  64  54 E7        30.09S
$$

KYZ035-036-041-042-044-050-067-078-099-222200
...CENTRAL KENTUCKY...

CITY           SKY/WX    TMP DP  RH WIND       PRES   REMARKS
MT STERLING*   MOSUNNY   84  63  48 E6        30.08F
FLEMING/MASON* SUNNY     84  63  49 SE7       30.08S
DANVILLE*      SUNNY     86  64  48 NE5       30.07F
LEXINGTON      MOSUNNY   87  67  51 NE6       30.06F HX  90
FRANKFORT      SUNNY     89  62  40 E8        30.04F
LOUISVILLE     MOSUNNY   91  66  43 SE8       30.02F HX  93
LEBANON*         N/A     86  64  48 CALM      30.05F
GLASGOW*       SUNNY     88  66  47 E7        30.03F HX  90
BOWLING GREEN  SUNNY     88  67  49 E6        30.02F HX  91
$$

KYZ091>093-OHZ055-061-077-WVZ005-015-034-035-042-222200
...SOUTHERN OHIO/WEST VIRGINIA...

CITY           SKY/WX    TMP DP  RH WIND       PRES   REMARKS
COVINGTON      PTSUNNY   88  68  51 S3        30.05F HX  91
COLUMBUS       PTSUNNY   89  66  46 NE6       30.06F HX  91
DAYTON         MOSUNNY   89  64  43 VRB3      30.07F HX  90
WILMINGTON     PTSUNNY   86  67  52 E6        30.06F
HUNTINGTON     MOSUNNY   85  63  47 E5        30.05F
CHARLESTON     MOSUNNY   88  60  38 N5        30.05F
PINEVILLE*     PTSUNNY   79  67  67 MISG      30.13F
BECKLEY        CLOUDY    79  61  53 N8        30.13F
BLUEFIELD      MOSUNNY   78  58  49 VRB3      30.14F
LOGAN CO APT*    N/A     81  66  61 CALM      30.09F
$$

VAZ002-007-008-TNZ017-027-036-066-071-222200
...SOUTHWEST VIRGINIA/EAST TENNESSEE...

CITY           SKY/WX    TMP DP  RH WIND       PRES   REMARKS
WISE*          SUNNY     79  57  47 NE8       30.15F
JONESVILLE*      N/A     86  63  45 NW5       30.07F
ABINGDON*      MOSUNNY   85  62  45 N5        30.09F
BRISTOL        PTSUNNY   88  64  44 N6        30.05F
MORRISTOWN*    CLEAR     88  59  37 N6        30.02F
SEVIERVILLE*   CLEAR     90  57  33 VRB3      30.01F
KNOXVILLE      PTSUNNY   88  61  40 NW7       30.02F
LAFOLLETTE*    CLEAR     86  66  51 CALM      30.07F
OAK RIDGE      MOSUNNY   89  61  38 CALM      30.03F
CROSSVILLE     MOSUNNY   79  66  64 CALM      30.09F
NASHVILLE      MOSUNNY   91  66  43 CALM      30.01F HX  93
$$

...KEY TO REMARKS...
VSB - VISIBILITY IN MILES
WCI - WIND CHILL INDEX
HX  - HEAT INDEX

$$




USA.gov is the U.S. government's official web portal to all federal, state and local government web resources and services.